TimeCST,TemperatureF,Dew PointF,Humidity,Sea Level PressureIn,VisibilityMPH,Wind Direction,Wind SpeedMPH,Gust SpeedMPH,PrecipitationIn,Events,Conditions,WindDirDegrees,DateUTC
12:03 AM,55.4,41.0,58,29.84,10.0,NNE,17.3,25.3,N/A,,Overcast,20,2013-01-13 06:03:00
12:53 AM,53.1,39.0,59,29.86,10.0,North,18.4,24.2,N/A,,Overcast,350,2013-01-13 06:53:00
1:53 AM,51.1,36.0,56,29.87,10.0,North,10.4,23.0,N/A,,Overcast,10,2013-01-13 07:53:00
2:53 AM,50.0,34.0,54,29.90,10.0,North,12.7,-,N/A,,Overcast,360,2013-01-13 08:53:00
3:53 AM,48.9,32.0,52,29.93,10.0,North,13.8,25.3,N/A,,Overcast,10,2013-01-13 09:53:00
4:53 AM,46.9,30.9,54,29.94,10.0,North,15.0,21.9,N/A,,Overcast,360,2013-01-13 10:53:00
5:53 AM,46.9,30.9,54,29.98,10.0,North,6.9,-,N/A,,Overcast,350,2013-01-13 11:53:00
6:53 AM,46.0,30.0,54,30.02,10.0,North,9.2,-,N/A,,Overcast,360,2013-01-13 12:53:00
7:53 AM,46.0,28.9,51,30.06,10.0,North,8.1,-,N/A,,Overcast,10,2013-01-13 13:53:00
8:53 AM,46.0,30.0,54,30.09,10.0,North,11.5,16.1,N/A,,Clear,360,2013-01-13 14:53:00
9:53 AM,46.9,30.0,52,30.14,10.0,North,11.5,18.4,N/A,,Clear,360,2013-01-13 15:53:00
10:53 AM,48.9,28.9,46,30.13,10.0,North,13.8,19.6,N/A,,Clear,350,2013-01-13 16:53:00
11:53 AM,51.1,28.9,43,30.11,10.0,North,11.5,-,N/A,,Clear,360,2013-01-13 17:53:00
12:53 PM,55.0,30.9,40,30.09,10.0,North,13.8,-,N/A,,Clear,350,2013-01-13 18:53:00
1:53 PM,57.0,30.0,36,30.07,10.0,NE,13.8,18.4,N/A,,Clear,40,2013-01-13 19:53:00
2:53 PM,57.9,28.9,33,30.07,10.0,North,9.2,18.4,N/A,,Clear,350,2013-01-13 20:53:00
3:53 PM,57.0,28.9,34,30.08,10.0,North,13.8,19.6,N/A,,Clear,10,2013-01-13 21:53:00
4:53 PM,55.0,30.0,38,30.09,10.0,NNE,9.2,-,N/A,,Clear,30,2013-01-13 22:53:00
5:53 PM,51.1,30.9,46,30.10,10.0,NNE,8.1,-,N/A,,Clear,30,2013-01-13 23:53:00
6:53 PM,50.0,32.0,50,30.12,10.0,NNE,8.1,-,N/A,,Clear,30,2013-01-14 00:53:00
7:53 PM,48.0,32.0,54,30.13,10.0,North,9.2,-,N/A,,Clear,10,2013-01-14 01:53:00
8:53 PM,46.9,28.9,50,30.15,10.0,North,6.9,-,N/A,,Clear,10,2013-01-14 02:53:00
9:53 PM,45.0,30.0,56,30.17,10.0,NE,10.4,-,N/A,,Clear,40,2013-01-14 03:53:00
10:53 PM,43.0,28.9,58,30.15,10.0,NE,9.2,-,N/A,,Clear,50,2013-01-14 04:53:00
11:53 PM,42.1,27.0,55,30.16,10.0,NNE,11.5,18.4,N/A,,Clear,30,2013-01-14 05:53:00